Weather in Simbirka

Russia / Kemerovo Oblast     56°02′44″N   87°10′08″E
temp.,
°C
wind,
m/s
gust,
m/s
humid.,
%
clouds,
%
prec.,
mm/h
press.,
hPa
HPBL,
m
17 may, tue
tue1701:00+14ssw38606 0.0 1010126
04:00+14sw4105927 0.0 1010207
07:00+15ssw377050 0.4 1011187
10:00+22sw584310 0.3 1009865
13:00+25sw683517 0.3 10082199
16:00+22ssw594773 0.1 10071150
19:00+24ssw5104117 0.1 1006736
22:00+22ssw615442 0.0 1006669
18 may, wed
wed1801:00+20ssw6174592 0.0 1005596
04:00+18sw51351100 0.0 1006481
07:00+18sw4106010 0.0 1008387
10:00+22wsw594498 0.0 10091105
13:00+24w6143637 0.0 10092527
16:00+24w6103237 0.0 10102503
19:00+22w3638100 0.0 1010545
22:00+16wsw225689 0.0 101213
19 may, thu
thu1901:00+15se1158100 0.0 101210
04:00+14ese2363100 0.0 101052
07:00+16ese3864100 0.1 1008193
10:00+23ese354390 0.0 1006390
13:00+29s5826100 0.0 10032962
16:00+28ssw61035100 0.0 10022471
19:00+20wsw81272100 0.8 1004764
22:00+17sw51271100 0.6 1006463
20 may, fri
fri2001:00+15wsw71458100 0.6 10081004
04:00+13sw715583 0.0 10091126
07:00+13sw816551 0.0 10101582
10:00+17sw815453 0.0 10122099
13:00+20wsw8133253 0.0 10122987
16:00+21wsw7122910 0.0 10123191
19:00+20wsw5113840 0.0 10122245
22:00+15sw3951100 0.0 1013245
21 may, sat
sat2101:00+12sw3761100 0.0 1014153
04:00+11ssw3766100 0.0 1013128
07:00+13ssw3115696 0.0 1012303
10:00+20ssw573716 0.0 1011769
13:00+24ssw45315 0.0 10091474
16:00+27s23270 0.0 10071697
19:00+26ese24365 0.0 1005155
22:00+18e37536 0.0 1004101